Regional Weather Roundup
Issued by NWS

Home | Current Version | Previous Version | Graphics & Text | Print | Product List | Glossary On
Versions: 1 2 3 4 5 6 7 8 9 10 11 12 13 14 15 16 17 18 19 20 21 22 23 24 25 26 27 28 29 30 31 32 33 34 35 36 37 38 39 40 41 42 43 44 45 46 47 48 49 50
000
ASUS43 KIND 270609
RWRIN

WEATHER ROUNDUP FOR INDIANA
NATIONAL WEATHER SERVICE INDIANAPOLIS IN
100 AM EST TUE JAN 27 2015

NOTE: "FAIR" INDICATES FEW OR NO CLOUDS BELOW 12,000 FEET WITH NO
SIGNIFICANT WEATHER AND/OR OBSTRUCTIONS TO VISIBILITY.

* - STATION DOES NOT REPORT WEATHER SUCH AS PRECIPITATION OR FOG.

+ - STATION NOT QUALITY CONTROLLED BY THE NATIONAL WEATHER SERVICE.
    USE DATA WITH CAUTION...ESPECIALLY DEWPOINT AND RELATIVE
    HUMIDITY OBSERVATIONS.

INZ001>003-010>013-019-020-270700-
NORTHWEST INDIANA

CITY           SKY/WX    TMP DP  RH WIND       PRES   REMARKS
GARY /AIRPORT/ CLOUDY    27  21  80 CALM      29.92F
KNOX *+        CLOUDY    22  11  63 SE6       29.92F WCI  15
LA PORTE +     FLURRIES  24  20  83 E3        29.93S
6HR MIN TEMP:  24; 6HR MAX TEMP:  25;

MICHIGAN CITY+ FLURRIES  23  14  68 CALM      29.94S
MONTICELLO +   CLOUDY    23  21  93 E5        29.92S WCI  17
RENSSELAER +   CLOUDY    27  27 100 E7        29.91F FOG     WCI  19
VALPARAISO     CLOUDY    22  18  85 E8        29.92F WCI  12
6HR MIN TEMP:  22; 6HR MAX TEMP:  23; 6HR PCP:  0.01;


$$

LMZ046-743>745-270700-
SOUTHERN LAKE MICHIGAN

STATION/POSITION TIME  TEMP WIND        PRES
                       AIR  DIR/SP/G
                 (UTC) (F)  (DEG/KT/KT) (MB)
MICHIGAN CITY    0600   23  110/  4/  5   N/A

$$

INZ004-005-014>016-021>024-270700-
NORTH CENTRAL INDIANA

CITY           SKY/WX    TMP DP  RH WIND       PRES   REMARKS
GOSHEN         CLOUDY    22  14  71 E3        29.93S
6HR MIN TEMP:  20; 6HR MAX TEMP:  22;

LOGANSPORT +   FLURRIES  23  21  93 E6        29.93S WCI  16
PERU/GRISSOM   FLURRIES  21  18  86 SE6       29.91F WCI  14
                                      6HR PCP: TRACE;

ROCHESTER +    CLOUDY    25  19  80 SE3       29.93S
SOUTH BEND     CLOUDY    24  15  68 E6        29.94S WCI  17
6HR MIN TEMP:  24; 6HR MAX TEMP:  24;

WARSAW +       CLOUDY    21  14  73 CALM      29.93S

$$

INZ006>009-017-018-025>027-270700-
NORTHEAST INDIANA

CITY           SKY/WX    TMP DP  RH WIND       PRES   REMARKS
ANGOLA *+      MOCLDY    18  10  73 CALM      29.92F
AUBURN +       CLOUDY    19  12  73 CALM      29.94F
FORT WAYNE     CLOUDY    19  13  77 CALM      29.94F
6HR MIN TEMP:  17; 6HR MAX TEMP:  19;

HUNTINGTON +   CLOUDY    19  10  66 SE3       29.93F
6HR MIN TEMP:  19; 6HR MAX TEMP:  20;


$$

INZ028-029-035-036-043>045-051>053-270700-
WEST CENTRAL INDIANA

CITY           SKY/WX    TMP DP  RH WIND       PRES   REMARKS
CRAWFORDSVL +  LGT SNOW  25  22  86 S3        29.90F
GREENCASTLE +  LGT SNOW  28  23  80 CALM      29.91S
LAFAYETTE      CLOUDY    26  24  92 CALM      29.91F
6HR MIN TEMP:  26; 6HR MAX TEMP:  28; 6HR PCP: TRACE;

TERRE HAUTE    LGT SNOW  28  26  92 S3        29.92S FOG
6HR MIN TEMP:  27; 6HR MAX TEMP:  28; 6HR PCP: TRACE;


$$

INZ030>032-037>040-046>048-054>057-064-065-270700-
CENTRAL INDIANA

CITY           SKY/WX    TMP DP  RH WIND       PRES   REMARKS
CP ATTERBURY + CLOUDY    28  25  86 CALM      29.92F
INDIANAPOLIS   FLURRIES  25  23  92 W3        29.91S
6HR MIN TEMP:  25; 6HR MAX TEMP:  26; 6HR PCP: TRACE;

-EAGLE CREEK     N/A     26  24  92 CALM      29.90F
6HR MIN TEMP:  26; 6HR MAX TEMP:  28; 6HR PCP: TRACE;

KOKOMO *+      CLOUDY    23  18  80 SE6       29.92F WCI  16
MARION +       CLOUDY    21  15  78 SE6       29.93S WCI  14
MT COMFORT *+  CLOUDY    27  16  63 SE7       29.92S WCI  19
SHELBYVILLE    CLOUDY    28  22  78 E5        29.91F WCI  23
6HR MIN TEMP:  27; 6HR MAX TEMP:  29; 6HR PCP: TRACE;

ZIONSVILLE +   CLOUDY    26  20  80 E6        29.91S WCI  19
6HR MIN TEMP:  26; 6HR MAX TEMP:  28;


$$

INZ033-034-041-042-049-050-058-059-270700-
EAST CENTRAL INDIANA

CITY           SKY/WX    TMP DP  RH WIND       PRES   REMARKS
MUNCIE         CLOUDY    21  14  74 E7        29.92F WCI  12
6HR MIN TEMP:  18; 6HR MAX TEMP:  22;


$$

INZ060-061-067>069-081>083-085>088-270700-
SOUTHWEST INDIANA

CITY           SKY/WX    TMP DP  RH WIND       PRES   REMARKS
EVANSVILLE     CLOUDY    32  28  85 CALM      29.92F FOG
6HR MIN TEMP:  31; 6HR MAX TEMP:  32;

HUNTINGBURG *+ CLOUDY    28  25  86 S5        29.92F WCI  23
6HR MIN TEMP:  27; 6HR MAX TEMP:  28;

WASHINGTON +   MIX PCPN  29  26  87 S3        29.92S
6HR MIN TEMP:  27; 6HR MAX TEMP:  29;


$$

INZ062-063-066-070>080-084-089>092-270700-
SOUTH CENTRAL AND SOUTHEAST INDIANA

CITY           SKY/WX    TMP DP  RH WIND       PRES   REMARKS
BLOOMINGTON    CLOUDY    27  25  92 CALM      29.90F FOG
6HR MIN TEMP:  27; 6HR MAX TEMP:  28; 6HR PCP: TRACE;

NORTH VERNON + CLOUDY    30  27  86 CALM      29.91

$$




USA.gov is the U.S. government's official web portal to all federal, state and local government web resources and services.